Location: La Pernelle
(49.6188°N, 1.2999°W)
Time: 10:15:56
(UTC+00:00)

Cosmos 2322 Rocket - Pass Details

Date: 12 June 2021
Orbit: 833 x 850 km, 71.0° (Epoch: 03 August)

Event Time Altitude Azimuth Distance (km) Brightness Sun altitude
Exits shadow 22:44:01 - 219° (SW) 3,402 5.0 -15.0°
Rises 22:44:01 0° 219° (SW) 3,401 5.0 -15.0°
Reaches altitude 10° 22:46:30 10° 223° (SW) 2,471 4.4 -15.1°
Maximum altitude 22:52:07 60° 303° (WNW) 969 2.7 -15.4°
Drops below altitude 10° 22:57:46 10° 24° (NNE) 2,488 5.4 -15.6°
Sets 23:00:17 0° 28° (NNE) 3,427 6.1 -15.8°
